View from above orbital plane
|
View from above satellite
|
Ground track
|
The orbit data is extracted from the following two-line orbital elements,
1 25544U 98067A 21103.07939285 .00000401 00000-0 15481-4 0 9998
2 25544 51.6438 304.7555 0002818 220.2381 290.9395 15.48881982278508
Epoch (UTC): | 13 April 2021 01:54:19 |
Eccentricity: | 0.0002818 |
inclination: | 51.6438° |
perigee height: | 418 km |
apogee height: | 422 km |
right ascension of ascending node: | 304.7555° |
argument of perigee: | 220.2381° |
revolutions per day: | 15.48881982 |
mean anomaly at epoch: | 290.9395° |
orbit number at epoch: | 27850 |
The dashed part of the orbit path shows where the satellite is in the earth's shadow,
|
|